Weather History for KGBD - July, 2013

Change the Weather History Date:

Saturday, July 13, 2013

  Actual Average Record
Temperature  
Mean Temperature 90 °F -  
Max Temperature 104 °F - - ()
Min Temperature 75 °F - - ()
Cooling Degree Days 24    
Growing Degree Days 40 (Base 50)    
Moisture  
Dew Point 64 °F    
Average Humidity 46    
Maximum Humidity 73    
Minimum Humidity 21    
Precipitation  
Precipitation 0.00 in - - ()
Sea Level Pressure  
Sea Level Pressure 29.92 in    
Wind  
Wind Speed 15 mph (South)    
Max Wind Speed 23 mph    
Max Gust Speed 26 mph    
Visibility 10 miles    
Events      
T = Trace of Precipitation, MM = Missing Value Source: NWS Daily Summary

Daily Weather History Graph

Daily Weather History Graph

Search for Another Location

Airport or City:

Trip Planner

Search our weather history database for the weather conditions in past years. The results will help you decide how hot, cold, wet, or windy it might be!

Date:

Astronomy

Jul. 13, 2013 Rise Set
Actual Time 6:22 AM CDT 8:59 PM CDT
Civil Twilight 5:51 AM CDT 9:30 PM CDT
Nautical Twilight 5:13 AM CDT 10:08 PM CDT
Astronomical Twilight 4:30 AM CDT 10:51 PM CDT
Moon 11:35 AM CDT (7/13) 11:46 PM CDT (7/13)
Length of Visible Light 15h 38m
Length of Day
14h 36m
Waxing Crescent, 26% of the Moon is Illuminated
Jul 13
Waxing Crescent
Jul 15
First Quarter
Jul 22
Full
Jul 29
Last Quarter
Aug 6
New

Hourly Weather History & Observations

Time (CDT) Temp. Heat Index Dew Point Humidity Pressure Visibility Wind Dir Wind Speed Gust Speed Precip Events Conditions
12:15 AM 84.2 °F 86.6 °F 66.2 °F 55% 29.95 in 10.0 mi SSE 17.3 mph - N/A   Clear
12:35 AM 82.4 °F 84.6 °F 66.2 °F 58% 29.95 in 10.0 mi SSE 16.1 mph 20.7 mph N/A   Clear
12:55 AM 82.4 °F 84.6 °F 66.2 °F 58% 29.95 in 10.0 mi SSE 13.8 mph - N/A   Clear
1:15 AM 82.4 °F 84.6 °F 66.2 °F 58% 29.95 in 10.0 mi South 16.1 mph - N/A   Clear
1:35 AM 82.4 °F 84.6 °F 66.2 °F 58% 29.95 in 10.0 mi South 15.0 mph - N/A   Clear
1:55 AM 80.6 °F 82.7 °F 66.2 °F 61% 29.95 in 10.0 mi South 15.0 mph - N/A   Clear
2:15 AM 80.6 °F 82.7 °F 66.2 °F 61% 29.95 in 10.0 mi South 16.1 mph - N/A   Clear
2:35 AM 80.6 °F 82.7 °F 66.2 °F 61% 29.95 in 10.0 mi South 15.0 mph - N/A   Clear
2:55 AM 80.6 °F 82.7 °F 66.2 °F 61% 29.95 in 10.0 mi South 16.1 mph 20.7 mph N/A   Clear
3:15 AM 80.6 °F 82.7 °F 66.2 °F 61% 29.95 in 10.0 mi South 15.0 mph - N/A   Clear
3:35 AM 78.8 °F - 66.2 °F 65% 29.96 in 10.0 mi South 13.8 mph - N/A   Clear
3:55 AM 78.8 °F - 66.2 °F 65% 29.96 in 10.0 mi South 13.8 mph - N/A   Clear
4:15 AM 78.8 °F - 66.2 °F 65% 29.96 in 10.0 mi South 12.7 mph - N/A   Clear
4:35 AM 78.8 °F - 66.2 °F 65% 29.96 in 10.0 mi South 13.8 mph - N/A   Clear
4:55 AM 78.8 °F - 66.2 °F 65% 29.96 in 10.0 mi South 11.5 mph - N/A   Clear
5:15 AM 77.0 °F - 66.2 °F 69% 29.95 in 10.0 mi South 12.7 mph - N/A   Clear
5:35 AM 77.0 °F - 66.2 °F 69% 29.96 in 10.0 mi South 10.4 mph - N/A   Clear
5:55 AM 77.0 °F - 66.2 °F 69% 29.96 in 10.0 mi South 11.5 mph - N/A   Clear
6:15 AM 75.2 °F - 66.2 °F 73% 29.96 in 10.0 mi South 12.7 mph - N/A   Clear
6:35 AM 75.2 °F - 66.2 °F 73% 29.96 in 10.0 mi South 10.4 mph - N/A   Clear
6:55 AM 75.2 °F - 66.2 °F 73% 29.97 in 10.0 mi South 10.4 mph - N/A   Clear
7:15 AM 77.0 °F - 66.2 °F 69% 29.96 in 10.0 mi South 11.5 mph - N/A   Clear
7:35 AM 78.8 °F - 66.2 °F 65% 29.96 in 10.0 mi South 13.8 mph - N/A   Clear
7:55 AM 78.8 °F - 66.2 °F 65% 29.96 in 10.0 mi South 16.1 mph - N/A   Clear
8:15 AM 80.6 °F 82.7 °F 66.2 °F 61% 29.95 in 10.0 mi South 17.3 mph 20.7 mph N/A   Clear
8:35 AM 82.4 °F 84.6 °F 66.2 °F 58% 29.95 in 10.0 mi SSW 18.4 mph - N/A   Clear
8:55 AM 82.4 °F 84.6 °F 66.2 °F 58% 29.95 in 10.0 mi SSW 18.4 mph 25.3 mph N/A   Clear
9:15 AM 84.2 °F 86.6 °F 66.2 °F 55% 29.95 in 10.0 mi SSW 18.4 mph 25.3 mph N/A   Clear
9:35 AM 87.8 °F 90.4 °F 66.2 °F 49% 29.95 in 10.0 mi SSW 16.1 mph 23.0 mph N/A   Clear
9:55 AM 87.8 °F 90.4 °F 66.2 °F 49% 29.95 in 10.0 mi South 19.6 mph 24.2 mph N/A   Clear
10:15 AM 89.6 °F 92.2 °F 66.2 °F 46% 29.94 in 10.0 mi SSW 15.0 mph 24.2 mph N/A   Clear
10:35 AM 91.4 °F 94.0 °F 66.2 °F 43% 29.94 in 10.0 mi SSW 15.0 mph 20.7 mph N/A   Clear
10:55 AM 93.2 °F 94.9 °F 64.4 °F 38% 29.94 in 10.0 mi South 16.1 mph - N/A   Clear
11:15 AM 93.2 °F 94.9 °F 64.4 °F 38% 29.95 in 10.0 mi SSW 15.0 mph 20.7 mph N/A   Clear
11:35 AM 95.0 °F 97.0 °F 64.4 °F 36% 29.94 in 10.0 mi SSW 15.0 mph 19.6 mph N/A   Clear
11:55 AM 96.8 °F 99.0 °F 64.4 °F 34% 29.94 in 10.0 mi South 15.0 mph - N/A   Clear
12:15 PM 98.6 °F 101.0 °F 64.4 °F 32% 29.94 in 10.0 mi South 15.0 mph - N/A   Clear
12:35 PM 98.6 °F 100.0 °F 62.6 °F 30% 29.94 in 10.0 mi South 13.8 mph 18.4 mph N/A   Clear
12:55 PM 98.6 °F 100.0 °F 62.6 °F 30% 29.93 in 10.0 mi SSW 12.7 mph 19.6 mph N/A   Clear
1:15 PM 100.4 °F 102.4 °F 62.6 °F 29% 29.93 in 10.0 mi South 13.8 mph 21.9 mph N/A   Clear
1:35 PM 102.2 °F 104.2 °F 62.6 °F 27% 29.92 in 10.0 mi SSW 10.4 mph 18.4 mph N/A   Clear
1:55 PM 102.2 °F 104.2 °F 62.6 °F 27% 29.91 in 10.0 mi South 13.8 mph 20.7 mph N/A   Clear
2:15 PM 102.2 °F 103.6 °F 60.8 °F 26% 29.91 in 10.0 mi South 12.7 mph - N/A   Clear
2:35 PM 104.0 °F 106.6 °F 62.6 °F 26% 29.90 in 10.0 mi South 13.8 mph 25.3 mph N/A   Clear
2:55 PM 102.2 °F 104.2 °F 62.6 °F 27% 29.90 in 10.0 mi SSE 15.0 mph - N/A   Clear
3:15 PM 102.2 °F 104.2 °F 62.6 °F 27% 29.89 in 10.0 mi SSE 13.8 mph 18.4 mph N/A   Clear
3:35 PM 104.0 °F 105.3 °F 60.8 °F 24% 29.89 in 10.0 mi South 16.1 mph 21.9 mph N/A   Clear
3:55 PM 104.0 °F 104.6 °F 59.0 °F 23% 29.88 in 10.0 mi SSE 16.1 mph - N/A   Clear
4:15 PM 104.0 °F 105.3 °F 60.8 °F 24% 29.88 in 10.0 mi SSE 15.0 mph - N/A   Clear
4:35 PM 104.0 °F 104.6 °F 59.0 °F 23% 29.87 in 10.0 mi South 13.8 mph - N/A   Clear
4:55 PM 104.0 °F 103.4 °F 57.2 °F 21% 29.87 in 10.0 mi South 13.8 mph 21.9 mph N/A   Clear
5:15 PM 102.2 °F 103.6 °F 60.8 °F 26% 29.86 in 10.0 mi SSE 12.7 mph - N/A   Clear
5:35 PM 102.2 °F 102.4 °F 59.0 °F 24% 29.86 in 10.0 mi SSE 18.4 mph - N/A   Clear
5:55 PM 102.2 °F 102.4 °F 59.0 °F 24% 29.85 in 10.0 mi SSE 15.0 mph - N/A   Clear
6:15 PM 102.2 °F 103.6 °F 60.8 °F 26% 29.85 in 10.0 mi SSE 15.0 mph 21.9 mph N/A   Clear
6:35 PM 100.4 °F 101.3 °F 60.8 °F 27% 29.84 in 10.0 mi SSE 16.1 mph - N/A   Clear
6:55 PM 100.4 °F 102.4 °F 62.6 °F 29% 29.84 in 10.0 mi SSE 16.1 mph - N/A   Clear
7:15 PM 98.6 °F 100.0 °F 62.6 °F 30% 29.84 in 10.0 mi SSE 15.0 mph - N/A   Clear
7:35 PM 98.6 °F 100.0 °F 62.6 °F 30% 29.84 in 10.0 mi SSE 15.0 mph 24.2 mph N/A   Clear
7:55 PM 96.8 °F 98.0 °F 62.6 °F 32% 29.84 in 10.0 mi SSE 16.1 mph 20.7 mph N/A   Clear
8:15 PM 95.0 °F 96.0 °F 62.6 °F 34% 29.85 in 10.0 mi SE 12.7 mph - N/A   Clear
8:35 PM 93.2 °F 94.1 °F 62.6 °F 36% 29.86 in 10.0 mi SE 12.7 mph - N/A   Clear
8:55 PM 91.4 °F 92.1 °F 62.6 °F 38% 29.87 in 10.0 mi SE 15.0 mph 21.9 mph N/A   Clear
9:15 PM 91.4 °F 93.2 °F 64.4 °F 41% 29.87 in 10.0 mi SSE 23.0 mph - N/A   Clear
9:35 PM 89.6 °F 92.2 °F 66.2 °F 46% 29.88 in 10.0 mi SSE 18.4 mph 24.2 mph N/A   Clear
9:55 PM 87.8 °F 90.4 °F 66.2 °F 49% 29.89 in 10.0 mi SE 17.3 mph - N/A   Clear
10:15 PM 87.8 °F 90.4 °F 66.2 °F 49% 29.89 in 10.0 mi SE 19.6 mph - N/A   Clear
10:35 PM 87.8 °F 90.4 °F 66.2 °F 49% 29.90 in 10.0 mi SE 19.6 mph 25.3 mph N/A   Clear
10:55 PM 86.0 °F 88.2 °F 66.2 °F 51% 29.91 in 10.0 mi SSE 16.1 mph 23.0 mph N/A   Clear
11:15 PM 84.2 °F 86.6 °F 66.2 °F 55% 29.91 in 10.0 mi SSE 18.4 mph 25.3 mph N/A   Clear
11:35 PM 84.2 °F 85.6 °F 64.4 °F 51% 29.91 in 10.0 mi SSE 18.4 mph 26.5 mph N/A   Clear
11:55 PM 84.2 °F 85.6 °F 64.4 °F 51% 29.91 in 10.0 mi SSE 20.7 mph 25.3 mph N/A   Clear